Terminal Aerodrome Forecast
Issued by NWS

Home | Current Version | Previous Version | Graphics & Text | Print | Product List | Glossary On
Versions: 1 2 3 4 5 6 7 8 9 10 11 12 13 14 15
000
FTUS42 KMHX 152348
TAFPGV
TAF
KPGV 152348Z 1600/1624 03006KT P6SM SCT015 BKN035
     FM160400 04005KT P6SM VCSH OVC070
     FM161400 08010G15KT P6SM VCSH OVC050
      AMD LTD TO CLD VIS AND WIND=

USA.gov is the U.S. government's official web portal to all federal, state and local government web resources and services.